Back to catalog

FENGYUN 1C DEB

AlivePO
NORAD 36644·DEBRIS·🇨🇳 China

Launched May 10, 1999 from Taiyuan Satellite Launch Center

Loading…

Next Passes (next 24 hours)

TLE

AgingSource: Space-Track

Epoch: Sep 7, 2026, 12:56 UTC

1 36644U 99025DXN 26250.53926530  .00000949  00000-0  10108-2 0  9990
2 36644  98.4396 357.2170 0286087 193.5880 165.7444 13.59801238652200

Track FENGYUN 1C DEB in real time with AllMySat

Download on the App Store